User: anonymous   Login
Location: Frysztak
(49.8373°N, 21.6089°E)
Time: 14:11:24
(UTC+02:00)
Language:

ISS - Orbit

View from above orbital plane
View from above orbital plane
View from above satellite
View from above satellite

Ground track
Ground track

The orbit data is extracted from the following two-line orbital elements,

1 25544U 98067A   19110.54023024  .00016717  00000-0  10270-3 0  9010
2 25544  51.6373 287.7594 0001440 215.9681 144.1374 15.52568973  6292
Epoch (UTC): 20 April 2019 12:57:55
Eccentricity: 0.0001440
inclination: 51.6373°
perigee height: 408 km
apogee height: 410 km
right ascension of ascending node: 287.7594°
argument of perigee: 215.9681°
revolutions per day: 15.52568973
mean anomaly at epoch: 144.1374°
orbit number at epoch: 629

The dashed part of the orbit path shows where the satellite is in the earth's shadow,  

DLR